Weather History for Rawlins, WY

Change the Weather History Date:

Thursday, February 14, 2013

  Actual Average Record
Temperature  
Mean Temperature 16 °F 23 °F  
Max Temperature 25 °F 33 °F 51 °F (1981)
Min Temperature 6 °F 13 °F -8 °F (1964)
Degree Days  
Heating Degree Days 49 42  
Month to date heating degree days 591 599  
Since 1 July heating degree days 4957 5398  
Cooling Degree Days 0 0  
Month to date cooling degree days 0 0  
Year to date cooling degree days 0 0  
Moisture  
Dew Point 15 °F    
Average Humidity 77    
Maximum Humidity 92    
Minimum Humidity 62    
Precipitation  
Precipitation T in 0.01 in 0.34 in (2008)
Month to date precipitation 0.14 0.19  
Year to date precipitation 0.31 0.55  
Sea Level Pressure  
Sea Level Pressure 30.21 in    
Wind  
Wind Speed 10 mph (WNW)    
Max Wind Speed 29 mph    
Max Gust Speed 36 mph    
Visibility 8 miles    
Events Snow    
T = Trace of Precipitation, MM = Missing Value Source: NWS Daily Summary

Daily Weather History Graph

Daily Weather History Graph

Search for Another Location

Airport:

Trip Planner

Search our weather history database for the weather conditions in past years. The results will help you decide how hot, cold, wet, or windy it might be!

Date:

Astronomy

Feb. 14, 2013 Rise Set
Actual Time 7:05 AM MST 5:41 PM MST
Civil Twilight 6:36 AM MST 6:09 PM MST
Nautical Twilight 6:04 AM MST 6:42 PM MST
Astronomical Twilight 5:31 AM MST 7:14 PM MST
Moon 9:03 AM MST (2/14) 10:52 PM MST (2/14)
Length of Visible Light 11h 33m
Length of Day
10h 35m
Waxing Crescent, 22% of the Moon is Illuminated
Feb 14
Waxing Crescent
Feb 17
First Quarter
Feb 25
Full
Mar 4
Last Quarter
Mar 11
New

Hourly Weather History & Observations

Time (MST) Temp. Windchill Dew Point Humidity Pressure Visibility Wind Dir Wind Speed Gust Speed Precip Events Conditions
12:53 AM 24.1 °F 9.4 °F 18.0 °F 77% 30.12 in 10.0 mi West 20.7 mph 26.5 mph N/A   Overcast
1:53 AM 24.1 °F 7.1 °F 18.0 °F 77% 30.11 in 10.0 mi WSW 28.8 mph 35.7 mph N/A   Mostly Cloudy
2:53 AM 24.1 °F 10.1 °F 19.0 °F 81% 30.10 in 10.0 mi WSW 18.4 mph - N/A   Overcast
3:53 AM 25.0 °F 12.6 °F 19.9 °F 81% 30.08 in 9.0 mi WSW 15.0 mph 21.9 mph 0.00 in Snow Light Snow
4:39 AM 24.8 °F 9.6 °F 19.4 °F 80% 30.02 in 6.0 mi West 23.0 mph 28.8 mph 0.00 in Snow Light Snow
4:53 AM 25.0 °F 11.3 °F 19.9 °F 81% 30.10 in 8.0 mi West 18.4 mph 29.9 mph 0.00 in Snow Light Snow
5:15 AM 24.8 °F 10.0 °F 19.4 °F 80% 30.03 in 5.0 mi West 21.9 mph 28.8 mph 0.00 in Snow Light Snow
5:53 AM 24.1 °F 11.0 °F 19.0 °F 81% 30.13 in 10.0 mi West 16.1 mph 27.6 mph 0.00 in   Overcast
6:43 AM 21.2 °F 8.3 °F 17.6 °F 86% 30.07 in 10.0 mi West 13.8 mph - N/A   Mostly Cloudy
6:53 AM 21.9 °F 9.8 °F 18.0 °F 85% 30.19 in 10.0 mi West 12.7 mph - N/A   Mostly Cloudy
7:53 AM 19.9 °F 9.3 °F 16.0 °F 85% 30.21 in 10.0 mi WNW 9.2 mph - 0.00 in   Mostly Cloudy
8:39 AM 21.2 °F 16.4 °F 17.6 °F 86% 30.12 in 10.0 mi Variable 3.5 mph - N/A   Overcast
8:46 AM 21.2 °F 16.4 °F 17.6 °F 86% 30.12 in 10.0 mi WSW 3.5 mph - N/A   Overcast
8:53 AM 21.9 °F 12.5 °F 17.1 °F 82% 30.24 in 10.0 mi NW 8.1 mph - N/A   Overcast
9:15 AM 19.4 °F 5.0 °F 14.0 °F 80% 30.14 in 10.0 mi NNW 16.1 mph - N/A   Overcast
9:25 AM 19.4 °F 5.5 °F 14.0 °F 80% 30.14 in 3.0 mi NNW 15.0 mph - 0.00 in Snow Light Snow
9:50 AM 19.4 °F 6.6 °F 14.0 °F 80% 30.16 in 8.0 mi NNW 12.7 mph - 0.00 in Snow Light Snow
9:53 AM 19.9 °F 8.6 °F 15.1 °F 81% 30.28 in 8.0 mi NW 10.4 mph - 0.00 in Snow Light Snow
10:44 AM 21.2 °F 11.7 °F 15.8 °F 80% 30.18 in 7.0 mi ENE 8.1 mph - 0.00 in   Overcast
10:53 AM 21.0 °F 9.9 °F 15.1 °F 78% 30.32 in 4.0 mi NE 10.4 mph - 0.00 in Snow Light Snow
11:32 AM 21.2 °F 10.9 °F 14.0 °F 74% 30.19 in 10.0 mi ENE 9.2 mph - 0.00 in   Overcast
11:53 AM 23.0 °F 12.4 °F 15.1 °F 72% 30.32 in 10.0 mi East 10.4 mph - 0.00 in   Overcast
12:53 PM 23.0 °F 13.9 °F 12.9 °F 65% 30.30 in 9.0 mi East 8.1 mph - 0.00 in Snow Light Snow
1:33 PM 23.0 °F - 12.2 °F 63% 30.19 in 10.0 mi Calm Calm - 0.00 in   Overcast
1:51 PM 23.0 °F 15.8 °F 12.2 °F 63% 30.18 in 10.0 mi ESE 5.8 mph - 0.00 in   Overcast
1:53 PM 23.0 °F 17.0 °F 12.9 °F 65% 30.30 in 10.0 mi East 4.6 mph - 0.00 in   Overcast
2:18 PM 23.0 °F - 12.2 °F 63% 30.19 in 7.0 mi Calm Calm - 0.00 in   Overcast
2:53 PM 21.9 °F 17.2 °F 12.9 °F 68% 30.31 in 10.0 mi South 3.5 mph - 0.00 in   Overcast
3:53 PM 24.1 °F 17.0 °F 15.1 °F 69% 30.28 in 10.0 mi WSW 5.8 mph - N/A   Overcast
4:53 PM 24.1 °F 18.2 °F 14.0 °F 65% 30.28 in 10.0 mi WSW 4.6 mph - N/A   Scattered Clouds
5:53 PM 16.0 °F 10.4 °F 10.0 °F 77% 30.32 in 10.0 mi West 3.5 mph - N/A   Clear
6:53 PM 19.9 °F 11.1 °F 14.0 °F 78% 30.32 in 10.0 mi NNE 6.9 mph - N/A   Overcast
7:53 PM 19.0 °F - 14.0 °F 81% 30.33 in 7.0 mi Calm Calm - 0.00 in Snow Light Snow
8:23 PM 19.4 °F - 15.8 °F 86% 30.18 in 2.5 mi Calm Calm - 0.00 in Snow Light Snow
8:43 PM 19.4 °F - 15.8 °F 86% 30.17 in 4.0 mi Calm Calm - 0.00 in Snow Light Snow
8:53 PM 18.0 °F - 15.1 °F 88% 30.32 in 4.0 mi Calm Calm - 0.00 in Snow Light Snow
9:04 PM 17.6 °F - 15.8 °F 93% 30.18 in 4.0 mi Calm Calm - 0.00 in Snow Light Snow
9:27 PM 15.8 °F 10.2 °F 10.4 °F 79% 30.18 in 10.0 mi NE 3.5 mph - 0.00 in   Scattered Clouds
9:53 PM 10.9 °F 1.4 °F 8.1 °F 88% 30.37 in 10.0 mi WNW 5.8 mph - 0.00 in   Clear
10:53 PM 12.9 °F - 10.9 °F 92% 30.36 in 10.0 mi Calm Calm - N/A   Clear
11:53 PM 10.9 °F -2.6 °F 8.1 °F 88% 30.36 in 10.0 mi WSW 10.4 mph - N/A   Clear